#timestamp,LO_Frequency,Hit,StdDev 
1599739215.6,286047002.6,N
1599739235.4,286047000.6,N
1599739255.2,286047002.3,N
1599739275.1,286047000.2,N
1599739276.0,286047000.2,N
1599739295.8,286046999.7,N
1599739315.7,286047001.8,N
1599739335.5,286047001.4,N
1599739355.3,286047000.1,N
1599739375.2,286046998.5,N
1599739395.0,286046998.9,N
1599739395.9,286046998.9,N
1599739415.7,286046998.1,N
1599739435.6,286047000.8,N
1599739455.4,286047001.2,N
1599739475.3,286046998.1,N
1599739495.1,286047000.6,N
1599739496.0,286047000.6,N
1599739515.8,286047000.7,N
1599739535.7,286046998.3,N
1599739555.5,286046998.3,N
1599739575.3,286046999.4,N
1599739595.2,286046998.6,N
1599739615.0,286047000.7,N
1599739615.9,286047000.7,N
1599739635.8,286046998.1,N
1599739655.6,286047000.4,N
1599739675.4,286047000.5,N
1599739695.3,286047000.8,N
1599739715.1,286047001.0,N
1599739735.8,286047001.0,N
1599739755.7,286046998.2,N
1599739775.5,286046998.3,N
1599739795.4,286046998.9,N
1599739815.2,286046999.0,N
1599739835.0,286047001.2,N
1599739835.9,286047001.2,N
1599739855.8,286046998.9,N
1599739875.6,286046998.3,N
1599739895.4,286046998.7,N
1599739915.3,286046999.2,N
1599739935.1,286046996.7,N
1599739955.9,286046996.9,N
1599739975.7,286046999.6,N
1599739995.5,286046998.2,N
1599740015.4,286047000.6,N
1599740035.2,286046998.8,N
1599740055.0,286046999.0,N
1599740055.9,286046999.0,N
1599740075.8,286046999.4,N
1599740095.6,286046997.2,N
1599740115.5,286046997.2,N
1599740135.3,286046995.0,Y
1599740155.2,286046996.8,P
1599740175.9,286046996.8,N
1599740195.7,286046996.5,P
1599740215.6,286046996.6,Y
1599740235.4,286047000.2,P
1599740255.3,286047000.6,N
1599740275.1,286047000.1,N
1599740295.9,286047000.6,N
1599740315.7,286047000.1,N
1599740335.5,286047002.8,N
1599740355.4,286047002.5,N
1599740375.2,286046999.8,N
1599740395.0,286047000.7,N
1599740395.9,286047000.7,N
1599740415.8,286047000.3,N
1599740435.6,286047000.1,N
1599740455.5,286047000.0,N
1599740475.3,286047000.1,N
1599740495.1,286047000.0,N
1599740515.9,286047001.0,N
1599740535.7,286047000.5,N
1599740555.6,286046999.9,N
1599740575.4,286047000.7,N
1599740595.2,286047000.8,N
1599740615.1,286047001.1,N
1599740616.0,286047001.1,N
1599740635.8,286047001.1,N
1599740655.7,286047000.7,N
1599740675.5,286047000.5,N
1599740695.3,286047000.7,N
1599740715.2,286046998.2,N
1599740735.0,286047000.6,N
1599740735.9,286047000.6,N
1599740755.7,286047000.3,N
1599740775.6,286047002.8,Y
1599740795.4,286047000.5,P
1599740815.3,286047001.2,P
1599740835.1,286046998.6,P
1599740836.0,286046998.6,N
1599740855.8,286046998.4,N
1599740875.7,286047001.2,N
1599740895.5,286046998.8,N
1599740915.3,286046999.1,N
1599740935.2,286046998.8,N
1599740955.0,286046999.3,N
1599740955.9,286046999.3,N
1599740975.8,286046999.6,N
1599740995.6,286046997.4,N
1599741015.4,286046996.9,N
1599741035.3,286046997.4,N
1599741055.1,286046997.2,N
1599741075.8,286046996.8,N
1599741095.7,286046997.7,N
1599741115.5,286046997.7,N
1599741135.4,286046997.7,N
1599741155.2,286046997.0,N
1599741175.0,286046997.0,N
1599741175.9,286046997.0,N
1599741195.8,286046997.4,N
1599741215.6,286046996.5,N
1599741235.4,286046997.3,N
1599741255.3,286046996.6,N
1599741275.1,286046997.4,N
1599741295.9,286046997.7,N
1599741315.7,286046997.8,N
1599741335.5,286046997.8,N
1599741355.4,286046997.1,N
1599741375.2,286046996.5,Y
1599741395.0,286046998.5,P
1599741396.0,286046998.5,P
1599741415.8,286046998.2,P
1599741435.6,286046998.8,Y
1599741455.5,286046999.8,P
1599741475.3,286047001.7,N
1599741495.1,286047001.8,N
1599741515.9,286047002.4,N
1599741535.7,286047002.8,N
1599741555.6,286047002.8,N
1599741575.4,286046999.8,N
1599741595.2,286047000.0,N
1599741615.1,286047002.7,N
1599741616.0,286047002.7,N
1599741635.8,286046999.9,N
1599741655.6,286047002.4,N
1599741675.5,286047002.3,N
1599741695.3,286047002.3,N
1599741715.2,286047001.9,N
1599741735.9,286047001.6,N
1599741755.7,286047002.2,N
1599741775.6,286046999.8,N
1599741795.4,286047000.4,N
1599741815.2,286047000.5,N
1599741835.1,286047000.0,N
1599741836.0,286047000.0,N
1599741855.8,286046999.9,N
1599741875.7,286047002.8,N
1599741895.5,286047002.7,N
1599741915.3,286047002.7,N
1599741935.2,286047002.7,N
1599741955.0,286047001.5,N
1599741955.9,286047001.5,N
1599741975.7,286047001.8,N
1599741995.6,286047001.7,N
1599742015.4,286047001.6,N
1599742035.3,286047001.7,N
1599742055.1,286047003.3,N
1599742056.0,286047003.3,N
1599742075.8,286047004.2,Y
1599742095.7,286047001.6,P
1599742115.5,286046999.8,P
1599742135.4,286047002.6,P
1599742155.2,286047002.2,N
1599742175.0,286047002.1,N
1599742175.9,286047002.1,N
1599742195.8,286047002.5,N
1599742215.6,286047002.5,N
1599742235.4,286047001.7,N
1599742255.3,286047002.0,N
1599742275.1,286046999.9,N
1599742295.8,286047002.7,N
1599742315.7,286047002.5,N
1599742335.5,286047002.5,N
1599742355.4,286047000.3,N
1599742375.2,286047000.1,N
1599742395.0,286047001.9,N
1599742395.9,286047001.9,N
1599742415.8,286047001.4,N
1599742435.6,286047002.0,N
1599742455.4,286047002.4,N
1599742475.3,286047002.3,N
1599742495.1,286046999.7,N
1599742515.9,286047000.3,N
1599742535.7,286047002.3,N
1599742555.5,286047001.8,N
1599742575.4,286047002.2,N
1599742595.2,286047002.7,N
1599742615.1,286047002.1,N
1599742616.0,286047002.1,N
1599742635.8,286047001.8,N
1599742655.6,286047001.4,N
1599742675.5,286047001.8,N
1599742695.3,286047002.2,N
1599742715.1,286047002.1,N
1599742735.9,286047001.0,N
1599742755.7,286046999.8,N
1599742775.6,286047000.6,N
1599742795.4,286047002.3,N
